Home > Weather > Antioch > Past weeks

Flag for USA Past Weather in Antioch, California, USA — Yesterday and Last 2 Weeks

Now
71 °F

Clear.


Feels Like: 77 °F
Forecast: 59 / 93 °F
Wind: 18 mph from Southwest

Location: Buchanan Field

Current Time: Jul 24, 2016 at 11:17:20 PM

Latest Report: Jul 24, 2016 at 9:53 PM


Visibility: 10 mi

Pressure: 29.81 "Hg

Humidity: 42%

Dew Point: 47 °F

Location of AntiochLocation

Past Weather in Antioch — Graph

°F

Antioch Temperature Yesterday

Maximum temperature yesterday: 100 °F (at 3:53 PM)
Minimum temperature yesterday: 60 °F (at 5:53 AM)
Average temperature yesterday: 79 °F

High & Low Weather Summary for the Past Weeks

 TemperatureHumidityPressure
High101 °F (Jul 24, 4:53 PM)81% (Jul 15, 5:53 AM)30.06 "Hg (Jul 15, 5:53 AM)
Low56 °F (Jul 19, 5:53 AM)7% (Jul 14, 3:53 PM)29.75 "Hg (Jul 24, 4:53 PM)
Average72 °F49%29.91 "Hg
* Reported Jul 9 9:53 PM — Jul 24 9:53 PM, Antioch, Weather by CustomWeather, © 2016

Note: Actual official high and low records may vary slightly from our data, if they occured in-between our weather recording intervals... More about our weather records

Advertising

Antioch Weather History for the Previous 24 Hours

Scroll right to see more
 ConditionsComfort  
Time TempWeatherWind HumidityBarometerVisibility
9:53 PM
Sun, Jul 24
71 °FClear.18 mph42%29.81 "Hg10 mi
8:53 PM77 °FSunny.15 mph35%29.79 "Hg10 mi
7:53 PM84 °FSunny.13 mph27%29.78 "Hg10 mi
6:53 PM93 °FSunny.12 mph18%29.76 "Hg10 mi
5:53 PM97 °FSunny.13 mph16%29.75 "Hg10 mi
4:53 PM101 °FSunny.10 mph15%29.75 "Hg10 mi
3:53 PM98 °FSunny.14 mph18%29.75 "Hg10 mi
2:53 PM97 °FSunny.14 mph19%29.77 "Hg10 mi
1:53 PM94 °FSunny.14 mph23%29.78 "Hg10 mi
12:53 PM91 °FSunny.12 mph26%29.79 "Hg10 mi
11:53 AM86 °FSunny.10 mph32%29.80 "Hg10 mi
10:53 AM80 °FSunny.8 mph42%29.80 "Hg10 mi
9:53 AM76 °FSunny.7 mph47%29.80 "Hg10 mi
8:53 AM72 °FSunny.No wind52%29.80 "Hg10 mi
7:53 AM65 °FSunny.No wind66%29.80 "Hg9 mi
6:53 AM61 °FClear.5 mph75%29.79 "Hg8 mi
5:53 AM61 °FClear.No wind75%29.78 "Hg9 mi
4:53 AM61 °FClear.6 mph75%29.77 "Hg10 mi
3:53 AM61 °FClear.3 mph75%29.76 "Hg10 mi
2:53 AM63 °FClear.No wind73%29.77 "Hg10 mi
1:53 AM64 °FClear.No wind70%29.78 "Hg10 mi
12:53 AM65 °FClear.5 mph68%29.78 "Hg10 mi
11:53 PM
Sat, Jul 23
68 °FClear.5 mph59%29.79 "Hg10 mi
Weather by CustomWeather, © 2016

See weather overviewHow to use our weather pages